Wind_Speed
11 10 10 10 10 9 9 9 9 9 9 9 10 10 10 10 9 9 9 9 9 9 9 9 9 10 9 10 10 9 9 9 9 9 8 9 10 10 10 10 10 10 11 12 13 13 14 15 15 14 13 11 9 8 7 7 7 7 7 7 9 10 11 11 11 10 11 12 11 11 12 12 12 13 14 16 17 18 18 18 17 16 15 14 15 15 15 14
12 12 12 11 11 11 11 11 11 10 10 10 10 10 10 10 10 9 9 9 9 9 9 9 9 9 9 10 9 10 9 9 9 8 6 8 8 8 9 9 9 9 10 11 12 12 13 14 15 15 14 12 11 9 9 8 8 8 8 8 9 11 12 11 12 12 12 12 12 12 12 12 12 13 15 18 18 19 20 19 18 17 16 15 15 16 16 15
12 12 12 12 12 12 12 12 11 11 11 10 10 10 10 10 10 10 9 9 9 9 10 10 10 10 10 10 10 11 10 10 10 7 6 8 8 8 8 9 9 8 9 9 11 11 12 13 14 14 14 13 13 11 10 9 9 9 9 10 11 11 11 11 12 12 13 13 13 13 12 13 13 14 16 18 19 20 20 17 17 18 16 16 17 17 17 17
13 13 13 13 13 13 13 13 12 12 11 10 10 10 9 9 9 10 9 9 10 10 10 10 10 10 10 11 11 11 11 12 10 7 8 10 9 9 9 9 9 9 9 9 10 10 11 12 13 14 14 14 14 14 12 11 10 10 10 11 11 11 11 11 11 12 12 13 13 13 14 14 14 17 17 18 20 20 17 15 17 18 17 18 18 18 18 19
13 13 13 14 14 14 14 14 14 13 13 12 11 10 10 9 9 10 10 10 10 10 10 10 11 11 11 11 11 12 12 11 10 10 11 11 11 10 10 10 11 11 10 10 10 10 11 12 13 14 14 14 15 15 14 13 13 12 12 12 12 12 12 12 12 13 13 14 15 15 16 16 17 19 19 21 20 17 14 14 18 19 19 19 19 19 20 20
14 14 14 14 14 14 14 14 14 14 14 14 12 11 11 10 9 10 10 10 10 10 10 10 11 11 11 11 12 12 12 11 12 13 13 13 12 12 11 12 12 12 12 12 11 11 12 13 14 14 14 15 16 16 15 15 14 14 14 13 12 12 13 13 13 13 14 15 15 16 17 17 18 20 21 21 16 14 15 16 18 20 19 20 20 21 20 20
16 15 15 15 15 15 15 15 15 15 15 14 14 13 12 11 10 10 10 11 11 11 11 11 11 11 11 12 12 12 12 13 13 14 13 13 13 13 13 13 13 13 13 13 13 13 13 14 15 15 15 16 17 17 16 15 15 16 15 14 13 13 14 14 14 14 14 15 16 17 17 18 19 20 21 18 13 12 17 17 18 19 19 20 21 21 20 21
17 17 17 16 16 16 16 16 16 16 16 16 15 14 13 13 12 11 11 11 11 12 11 11 11 11 11 12 12 13 13 13 13 13 14 14 13 13 13 13 13 13 13 13 13 14 14 15 15 16 16 17 18 18 17 17 17 16 15 14 14 15 16 16 15 15 16 16 17 18 17 18 20 21 20 14 10 14 18 17 18 18 19 21 21 21 21 22
18 18 18 18 17 17 17 17 17 17 17 17 16 16 15 14 13 13 12 12 12 12 12 12 12 12 12 12 13 13 13 12 12 12 13 13 13 13 13 13 13 13 13 13 13 14 15 16 16 17 18 19 19 18 18 18 18 17 15 15 15 16 17 17 17 17 18 17 19 19 18 19 21 23 19 12 12 17 17 18 18 18 19 20 21 22 22 23
19 19 19 19 18 18 18 18 18 18 18 18 18 17 17 16 16 15 14 14 13 13 13 13 13 13 13 13 13 13 13 12 12 11 12 12 12 12 13 13 13 12 12 12 13 14 15 16 17 18 19 20 19 19 19 20 20 18 17 17 17 17 17 17 18 19 19 19 20 22 21 21 22 26 19 11 15 18 18 19 19 20 20 20 22 23 23 24
19 19 19 19 19 19 19 19 19 19 19 19 19 19 19 18 18 17 17 16 15 15 15 15 14 14 14 15 14 13 14 13 12 11 11 12 12 13 13 13 13 12 12 13 14 15 16 17 18 19 20 20 20 21 22 21 20 20 20 21 20 19 18 17 18 19 20 19 20 22 25 25 25 25 17 13 18 20 22 23 21 23 23 23 24 24 25 26
20 20 20 20 20 20 20 19 19 19 19 19 20 20 20 20 20 20 19 18 18 17 17 17 16 16 16 16 15 15 14 13 12 12 12 12 13 14 13 13 13 13 14 15 15 16 17 18 19 20 20 21 22 22 22 21 22 22 23 24 22 22 21 18 16 17 18 19 19 21 29 31 26 21 17 18 22 23 25 25 24 26 27 27 27 27 27 27
21 21 21 21 21 21 20 20 20 20 20 20 21 21 22 22 22 22 21 21 21 20 19 19 18 18 19 18 17 16 16 15 15 14 14 14 14 14 14 14 15 15 16 17 17 17 19 20 21 22 22 22 23 23 23 24 24 24 25 25 25 24 21 17 15 17 18 19 19 20 30 36 29 21 20 22 23 24 26 26 26 28 29 30 30 29 28 29
22 22 22 22 22 22 22 21 22 21 21 21 22 23 23 23 23 23 23 23 23 23 22 21 21 20 20 20 18 18 17 17 16 16 16 16 15 16 16 16 16 16 17 18 19 20 21 21 22 24 24 24 24 25 25 26 26 26 26 26 26 22 20 21 19 20 21 21 21 20 29 39 33 26 24 22 23 25 27 28 28 30 31 32 32 31 30 30
24 23 23 23 22 22 23 23 23 22 22 22 23 24 24 24 25 25 25 25 25 25 25 25 24 24 24 23 21 20 20 19 18 18 17 17 17 18 17 17 17 18 19 19 21 22 22 22 24 25 26 26 26 26 26 27 28 27 25 25 26 23 24 26 22 21 22 23 24 21 28 38 35 29 27 26 27 28 29 29 30 31 32 33 33 32 32 32
26 25 25 24 23 23 23 24 24 23 23 23 23 24 25 25 25 26 26 26 27 27 27 27 26 26 26 25 23 21 20 19 19 18 18 18 19 19 19 19 20 20 20 21 22 22 23 24 25 27 27 28 27 26 27 28 29 28 25 26 28 27 28 29 25 24 24 24 27 25 30 38 36 31 31 30 31 33 32 30 30 32 33 34 34 32 32 32
28 28 27 26 25 25 25 25 24 24 23 23 23 24 25 26 26 27 27 27 28 28 28 29 29 29 29 27 25 23 21 21 21 21 21 21 21 21 21 22 22 22 23 23 24 24 25 25 26 27 29 29 28 27 25 26 29 27 26 26 27 28 29 31 30 26 26 27 30 31 35 40 37 34 34 33 34 35 35 32 31 33 34 34 34 33 33 33
30 30 29 28 28 27 27 27 26 25 24 23 24 24 25 26 27 28 28 28 29 29 29 30 29 29 28 26 24 21 19 19 20 21 22 22 22 22 24 25 24 25 25 26 26 26 26 27 27 28 30 31 30 29 27 26 27 26 26 27 29 30 31 33 31 29 29 31 33 36 40 42 40 37 35 33 34 36 37 35 34 34 35 35 35 33 32 33
31 31 30 30 29 28 28 28 28 27 26 25 25 26 26 27 27 28 29 29 29 29 29 29 28 27 26 24 22 20 19 19 20 21 22 24 25 26 27 27 27 27 28 28 27 27 28 28 29 31 33 33 31 29 29 28 26 27 29 30 30 32 34 33 32 31 32 34 36 38 41 43 42 40 36 33 35 38 37 36 35 36 37 35 33 31 31 32
33 32 31 30 29 29 29 30 30 29 28 27 27 27 28 29 29 29 29 30 30 30 29 29 29 30 29 29 27 27 27 27 27 27 28 28 29 30 29 29 29 29 30 30 29 30 30 30 32 34 33 32 31 28 27 28 28 29 30 31 31 33 35 33 32 33 34 36 38 38 41 45 44 42 38 33 35 39 38 37 36 34 33 31 29 29 30 30
35 34 33 32 30 29 30 31 31 29 29 29 28 29 30 30 31 31 31 32 31 31 31 31 32 33 32 31 31 31 31 32 33 32 32 32 32 32 32 32 32 33 32 30 32 32 32 33 35 34 33 33 30 27 27 28 29 30 30 31 32 34 35 33 32 34 35 36 39 41 43 48 47 43 41 38 37 39 38 35 31 28 27 28 27 28 28 27
36 36 36 34 32 31 32 32 31 30 30 30 30 31 31 32 33 34 35 36 35 33 33 33 33 33 32 31 31 32 34 35 35 34 33 34 35 35 35 34 34 35 33 32 34 35 35 37 36 33 33 31 28 27 28 28 29 30 30 31 33 34 35 33 32 35 35 36 41 44 47 52 50 45 44 42 38 34 32 28 25 26 27 26 25 25 26 27
35 36 36 36 34 34 34 34 32 31 31 31 31 32 33 34 34 35 37 41 41 36 35 35 35 34 32 32 32 33 36 37 36 35 35 36 37 37 37 36 36 36 35 36 38 38 37 37 34 31 30 28 26 26 26 27 30 31 31 31 33 34 32 32 34 36 37 38 42 45 51 57 53 48 46 40 34 26 23 27 26 25 26 25 25 26 27 28
35 34 35 35 34 35 36 36 35 33 32 33 33 33 34 35 35 36 38 43 47 43 38 36 36 35 33 33 33 35 37 38 38 37 37 38 38 38 39 39 38 39 39 40 39 40 40 37 35 33 31 29 28 27 26 28 31 31 31 31 33 34 32 34 36 37 38 40 42 42 47 55 49 39 35 32 35 29 21 25 26 23 25 26 27 27 25 25
33 33 34 34 33 34 35 35 35 35 34 34 34 34 35 35 36 37 39 44 48 47 42 39 39 37 35 35 35 36 39 40 39 39 38 39 39 40 41 39 40 42 41 40 40 41 40 37 36 33 31 31 32 30 29 30 32 32 31 31 32 32 32 35 35 33 33 32 35 31 25 34 29 17 25 34 41 40 28 27 27 23 25 26 28 28 24 24
34 34 33 33 32 32 33 33 33 33 34 34 34 34 34 35 36 36 38 42 46 47 42 38 36 35 34 34 33 34 37 41 40 39 39 38 39 40 41 41 41 41 40 39 37 37 38 35 33 32 31 31 32 32 30 30 33 33 32 31 31 32 33 33 31 29 23 21 30 26 16 26 25 19 36 45 40 38 33 32 29 21 22 27 28 27 23 24
36 35 34 34 32 32 33 33 31 32 32 32 32 33 33 34 34 33 34 31 30 32 29 24 23 26 28 27 27 29 32 34 33 32 34 34 36 39 40 42 41 40 40 36 32 33 35 31 29 30 30 30 32 32 30 29 32 34 32 30 30 32 32 31 29 27 27 31 37 34 25 30 33 36 47 46 36 34 32 33 29 19 23 28 23 19 20 23
39 37 37 36 34 33 34 32 32 31 31 31 31 32 33 33 32 31 26 15 10 12 12 10 9 11 15 16 17 22 25 26 25 24 25 26 29 32 35 37 38 39 38 35 34 34 33 29 28 28 28 29 31 31 29 27 31 34 33 32 31 32 32 31 29 27 32 34 27 28 25 20 32 42 38 33 31 31 29 31 30 26 27 22 15 17 21 24
40 40 39 38 37 36 35 34 34 32 31 31 30 30 31 31 31 28 20 11 7 10 11 11 11 9 10 13 15 20 24 25 24 24 23 24 26 29 30 31 32 35 35 36 37 35 33 32 31 31 32 33 33 31 31 29 31 33 33 32 30 31 31 29 29 28 29 25 18 25 24 14 25 32 19 19 25 24 26 33 38 36 24 14 15 21 22 24
38 39 40 40 39 38 38 37 35 34 33 31 30 31 30 30 28 21 15 13 11 10 11 13 16 17 17 20 23 26 28 28 28 28 26 27 29 30 30 29 29 31 32 34 35 35 36 36 35 35 34 35 34 33 33 32 33 34 33 32 29 30 30 27 29 26 19 15 15 24 28 19 17 12 7 16 23 23 31 38 37 27 16 15 23 24 21 24
38 37 38 38 37 37 38 38 37 35 34 33 32 32 29 29 27 17 11 17 19 18 19 18 19 22 22 25 26 27 28 30 30 30 29 30 32 33 33 30 30 30 31 35 36 36 37 38 38 38 36 35 36 36 36 35 35 34 32 30 25 20 18 17 19 13 8 7 7 16 22 20 20 14 15 27 29 33 39 33 23 19 22 29 29 21 20 23
38 38 38 37 35 35 35 36 37 36 35 34 32 32 30 24 27 29 23 19 15 14 19 20 22 24 22 24 27 25 26 29 29 29 31 32 34 37 36 33 32 28 28 34 36 36 39 41 39 37 36 36 36 36 37 37 38 37 34 27 16 7 6 7 6 4 8 12 15 19 15 19 34 40 40 42 38 36 32 22 22 32 38 36 26 18 20 22
39 40 40 38 36 34 33 33 34 35 34 33 30 32 29 19 23 35 36 29 18 12 13 13 15 17 17 23 26 23 24 27 27 27 30 33 37 40 37 36 36 32 30 31 29 28 31 35 36 36 36 37 37 39 39 39 39 37 35 27 14 4 2 5 5 4 7 12 19 21 14 17 33 41 40 34 29 30 31 32 38 42 37 29 24 20 19 21
39 41 41 40 38 36 34 32 32 34 32 31 31 29 26 26 30 32 33 35 32 27 24 17 15 17 21 26 26 23 25 27 28 29 32 36 39 42 41 39 39 38 39 36 31 26 22 27 33 32 32 35 36 36 38 40 39 34 31 27 20 13 9 6 5 3 6 14 18 12 11 18 23 29 35 27 28 39 44 43 40 35 30 27 26 22 20 22
42 44 43 42 40 37 35 33 33 33 29 28 27 27 33 42 43 36 35 36 33 33 33 29 29 30 31 33 31 29 29 30 32 32 34 39 42 43 44 41 38 40 40 35 31 30 28 34 40 35 35 38 36 34 34 33 33 31 27 24 24 27 25 16 14 15 11 15 16 11 19 41 43 46 54 42 39 45 39 36 35 31 29 25 23 22 20 22
44 46 47 47 43 37 36 37 35 34 33 28 24 31 47 52 43 35 33 31 28 29 30 32 35 36 36 37 36 35 33 33 35 35 37 41 44 47 48 44 41 40 41 37 35 32 28 33 40 35 33 35 34 33 33 30 28 26 24 26 30 31 27 19 17 21 13 9 19 18 25 49 50 44 48 38 32 36 33 35 37 30 25 23 23 24 23 25
45 47 48 48 44 38 37 38 35 33 33 31 31 42 55 57 50 45 40 34 30 27 25 30 35 34 33 34 36 35 32 34 38 38 40 41 43 49 49 45 43 42 42 40 40 40 33 32 40 36 28 26 25 25 29 33 30 26 27 30 28 22 19 18 8 8 7 5 20 30 30 43 40 27 30 30 27 34 37 36 33 26 24 28 34 33 30 30
47 47 50 52 48 41 39 39 36 33 29 29 39 50 55 56 57 56 51 47 43 37 33 35 35 34 35 35 35 32 28 34 39 39 42 42 44 49 46 43 44 42 40 37 39 43 38 33 38 42 34 28 28 27 29 33 31 32 36 33 26 14 11 16 9 4 9 4 12 31 38 45 45 34 33 36 33 35 35 31 27 25 29 38 44 41 36 34
47 46 52 56 51 42 40 39 36 33 31 35 45 53 55 56 56 54 52 52 52 46 42 42 39 37 38 39 38 35 33 37 40 40 42 43 44 48 45 42 41 38 36 35 37 42 41 32 29 36 35 29 31 34 35 37 37 38 39 34 32 23 13 18 18 12 10 5 9 23 29 37 41 34 33 34 33 35 36 36 35 33 39 46 48 45 40 37
46 47 51 53 47 41 40 40 38 37 39 43 49 53 55 56 53 50 48 50 53 51 48 47 44 41 43 43 42 41 39 40 42 43 44 45 46 48 46 42 40 39 36 34 33 36 40 36 29 32 33 30 36 40 41 45 44 44 43 39 37 33 25 21 23 24 16 5 7 8 15 35 36 22 22 28 35 45 47 48 48 46 49 53 51 47 42 40
48 50 51 51 49 46 44 43 43 43 45 48 51 53 55 54 52 50 48 48 51 51 50 50 48 47 48 46 45 45 41 42 44 44 45 49 49 48 47 43 39 38 36 35 34 34 37 38 35 37 39 41 47 50 50 51 48 47 47 46 44 42 36 19 12 26 28 18 18 9 10 44 46 22 26 36 43 54 56 56 58 56 55 55 51 47 45 45
49 54 55 53 53 51 48 49 49 48 51 54 54 53 53 52 51 51 49 48 49 49 50 52 53 52 50 49 48 47 44 44 47 46 47 50 51 50 49 45 41 39 35 33 34 35 36 36 36 40 43 45 47 50 52 50 47 44 41 43 44 44 43 28 13 24 30 29 37 21 9 47 61 42 47 57 57 62 63 62 63 59 56 55 51 49 50 51
48 54 56 56 57 54 50 49 49 51 55 56 54 53 52 52 52 52 50 48 48 48 50 52 53 54 53 52 50 49 47 47 49 50 49 50 54 54 51 49 48 44 39 35 35 33 31 32 34 36 40 44 48 52 54 48 40 39 41 44 44 43 47 43 35 37 30 27 33 14 6 48 75 64 63 68 66 67 67 66 66 62 61 59 54 54 54 55
48 48 51 56 58 57 54 51 50 53 55 54 53 53 53 54 54 54 54 52 50 50 51 53 54 53 52 51 50 51 50 46 46 49 48 50 54 55 52 51 50 47 45 43 41 37 32 33 32 24 20 26 35 40 42 41 38 40 45 46 44 45 43 41 46 43 30 37 41 13 8 53 79 72 68 69 68 69 69 69 69 67 65 62 58 58 58 59
49 45 46 51 54 53 55 57 55 54 54 53 55 54 53 54 54 53 54 54 54 54 53 53 53 52 52 51 51 53 52 48 47 48 48 51 55 56 54 52 50 50 49 47 45 43 39 39 37 26 14 12 19 23 25 30 32 36 44 45 44 46 43 43 48 39 27 42 48 26 28 63 77 70 70 71 69 71 71 71 70 68 67 65 63 63 63 63
49 47 44 45 48 49 54 57 53 52 52 52 53 53 53 54 54 53 54 55 56 56 55 55 54 54 53 52 52 52 53 53 52 51 54 56 57 56 54 52 50 50 49 46 45 44 43 44 45 43 38 33 36 41 40 36 33 34 41 43 41 43 45 47 48 45 37 30 31 42 57 66 67 69 73 75 73 73 73 71 70 70 70 68 66 65 65 65
49 51 51 49 45 45 49 53 52 52 52 51 51 52 53 55 54 53 55 56 57 55 54 54 55 55 54 53 54 55 56 55 54 56 60 61 60 57 53 50 48 47 46 44 43 43 44 44 45 49 51 51 51 53 52 49 47 45 45 45 43 41 42 46 50 56 51 26 23 54 68 56 57 68 75 78 78 76 74 71 71 72 71 69 68 67 67 65
50 52 54 53 50 47 49 54 55 55 55 54 54 54 54 55 55 55 55 55 55 54 52 53 55 56 56 55 55 57 56 53 53 56 60 60 59 56 54 51 48 45 43 40 39 41 42 43 45 48 51 53 52 53 55 54 52 50 47 47 48 47 47 53 57 59 55 41 42 63 65 55 59 69 74 80 80 78 77 75 75 75 74 73 71 69 67 65
53 53 53 52 53 53 54 56 56 54 54 55 57 57 55 55 58 58 56 54 54 54 51 53 56 54 55 58 58 58 54 48 50 54 56 57 55 54 54 53 51 49 46 42 39 38 40 43 45 46 49 51 51 52 55 54 51 51 52 50 54 59 61 60 58 56 56 56 61 65 61 60 67 73 78 80 79 80 80 77 77 77 76 74 70 67 67 65
55 54 53 51 53 55 55 53 51 51 51 51 54 55 54 56 59 58 56 55 56 55 54 55 54 51 53 58 57 57 55 55 58 58 55 54 53 51 51 50 49 47 45 44 41 38 40 43 42 44 46 45 48 53 54 52 49 49 51 52 58 65 63 57 55 58 58 56 58 58 56 63 73 78 79 78 77 79 77 75 76 74 69 67 66 65 65 62
57 56 53 48 46 49 52 54 53 53 53 52 54 56 54 57 58 56 58 59 57 56 55 55 53 49 51 55 56 56 58 59 60 59 56 54 53 51 50 51 50 46 43 44 44 41 42 43 43 42 38 37 47 53 51 47 41 38 43 54 63 66 61 58 60 61 58 54 52 50 53 64 72 72 72 73 72 72 72 70 67 61 59 62 64 62 57 53
58 59 58 53 49 48 50 53 54 55 59 60 61 61 61 62 61 57 57 58 57 57 57 55 54 52 53 56 56 55 55 56 57 56 53 52 54 54 54 55 55 53 50 49 47 44 43 43 44 40 33 37 49 52 49 39 25 25 44 60 67 67 65 68 69 65 61 56 50 51 61 68 66 65 68 69 66 67 66 59 54 56 60 61 58 52 48 45
Wind_Direction
275 279 283 287 292 296 299 302 304 308 312 318 322 325 327 328 329 331 332 330 329 328 328 330 330 333 336 339 345 350 353 356 358 358 2 5 7 11 14 15 17 20 21 22 23 21 16 11 11 10 8 6 359 353 343 330 324 316 309 298 288 291 295 295 296 291 289 291 289 289 286 283 280 275 276 275 275 280 284 285 287 289 290 287 282 279 278 276
271 274 277 280 283 286 290 293 295 299 303 307 311 315 317 318 320 321 322 322 321 319 317 316 317 318 319 322 326 330 333 338 340 340 347 348 346 351 356 358 2 4 5 8 9 9 7 4 3 1 1 360 356 353 347 338 328 320 312 302 294 296 300 300 300 298 295 294 291 291 289 285 280 275 275 275 279 282 283 288 291 290 288 284 278 275 275 274
268 271 274 276 278 280 283 285 289 292 295 299 303 305 308 310 311 312 314 314 313 312 310 308 307 305 306 308 309 314 316 319 323 323 329 331 327 329 332 335 339 343 347 350 352 354 355 352 351 351 351 352 350 344 342 338 330 323 314 307 302 301 303 302 301 299 298 297 294 294 290 287 284 279 277 279 283 283 286 295 293 286 283 277 272 274 274 272
266 269 270 273 276 277 281 283 286 288 290 293 295 298 300 302 303 304 306 308 308 306 306 304 302 299 297 298 299 302 302 308 312 303 311 317 314 315 314 315 316 320 325 330 334 337 340 338 336 339 342 345 343 337 334 331 328 325 318 312 309 309 308 306 303 299 299 297 295 294 291 291 288 282 283 284 285 290 298 300 287 281 278 275 274 274 272 271
263 266 268 270 272 275 278 281 283 285 287 288 290 292 294 295 295 297 300 303 304 303 303 301 300 297 293 292 291 294 296 303 304 296 303 306 305 308 306 304 303 304 306 310 315 318 322 323 324 327 330 334 335 333 329 325 323 319 317 313 309 312 311 309 308 304 302 298 296 295 293 294 290 287 288 285 288 302 305 289 279 278 276 275 274 272 272 275
259 262 265 267 270 272 274 276 280 281 283 285 285 287 288 289 289 291 294 297 300 300 300 299 298 297 293 290 287 287 289 294 297 297 299 300 301 301 300 299 296 296 296 298 301 303 308 310 314 317 319 321 322 325 324 322 319 315 313 308 306 308 309 309 309 307 304 301 300 299 297 298 295 293 292 291 304 315 294 277 272 273 273 272 271 272 274 277
258 259 261 264 266 268 270 272 274 277 279 280 281 282 283 285 285 286 287 291 295 297 298 296 296 296 293 290 287 285 284 287 290 293 294 295 297 297 296 296 293 291 289 291 293 296 300 301 306 308 309 311 310 313 315 315 315 313 311 304 302 303 305 306 304 304 302 301 302 299 299 299 296 295 296 304 322 303 280 274 270 269 270 270 272 275 276 276
260 260 260 261 263 265 267 269 271 274 276 277 279 279 278 280 281 283 283 285 288 290 293 292 293 293 292 291 289 287 286 285 286 288 290 291 293 295 295 294 293 292 288 286 288 292 294 296 301 302 303 303 302 304 304 306 310 310 308 303 301 302 303 302 300 299 297 298 298 296 298 296 293 293 301 318 312 281 277 281 279 275 274 275 278 279 279 280
259 260 261 261 262 263 265 267 269 270 273 275 276 277 277 277 278 279 281 282 283 284 285 286 287 287 287 288 287 288 288 286 286 285 286 289 292 294 296 297 295 293 291 289 288 289 291 294 296 298 299 298 299 299 298 301 304 305 306 304 303 301 300 298 297 295 293 293 292 292 291 290 290 290 302 320 289 278 284 289 288 284 281 280 280 280 281 282
256 258 259 261 262 262 264 265 267 269 271 272 274 275 275 275 275 275 276 278 280 281 280 280 281 281 282 282 283 286 286 285 285 284 284 287 290 294 297 297 296 295 295 295 294 292 292 294 295 296 297 297 298 298 297 298 298 298 299 302 304 301 299 297 294 292 291 291 289 290 287 286 286 287 301 313 285 286 292 290 290 289 286 283 282 283 284 286
255 256 257 259 260 261 262 263 265 268 270 272 273 273 274 274 274 273 273 273 275 277 278 276 275 275 276 275 277 280 281 280 279 280 282 283 286 291 293 293 292 292 295 298 298 297 295 295 295 295 294 296 297 296 297 296 294 293 295 299 301 300 300 297 293 290 289 290 289 290 287 283 281 285 303 306 290 293 292 289 291 290 290 287 287 288 290 292
256 256 256 257 258 260 261 262 263 264 265 268 270 271 272 273 273 273 272 271 271 272 273 274 273 272 271 270 272 275 275 273 274 275 275 278 283 285 284 285 285 285 292 297 297 297 298 297 297 294 292 293 294 295 297 295 293 292 292 295 296 297 299 298 294 290 289 289 289 291 289 284 281 289 303 297 291 292 289 289 290 289 289 287 288 289 292 293
257 256 256 256 257 258 259 260 261 261 262 264 266 268 269 270 271 272 272 272 272 271 271 272 272 271 270 268 270 270 269 269 270 270 271 275 278 277 278 277 276 280 288 292 294 297 298 298 298 294 292 292 292 292 293 293 292 291 291 291 292 295 295 294 297 295 294 290 288 289 286 287 290 297 297 290 291 291 288 289 288 287 286 285 286 287 289 291
260 258 258 257 258 258 258 259 259 260 260 262 264 265 267 268 269 270 271 271 271 271 272 271 271 271 270 269 268 267 267 268 267 268 271 273 273 272 273 270 270 277 284 287 290 294 296 297 297 294 293 292 291 292 291 290 288 289 290 289 289 291 289 293 298 299 299 294 292 286 281 289 297 299 295 292 293 291 288 288 286 286 285 284 285 285 286 287
263 262 261 260 259 259 260 260 260 260 260 262 263 264 266 267 268 269 269 270 270 271 271 271 272 271 271 269 268 267 267 268 269 270 270 269 270 270 268 265 269 276 279 282 286 289 292 293 293 293 293 292 290 289 288 287 285 286 286 285 287 287 287 294 297 298 301 298 296 285 278 290 298 299 299 297 294 291 288 288 288 288 287 285 284 283 284 285
265 265 264 263 263 262 262 262 263 263 263 264 265 266 268 267 268 269 269 270 270 270 270 271 270 271 271 269 268 268 268 269 268 267 267 268 267 265 263 265 271 275 276 279 283 285 287 289 290 291 290 290 288 287 286 284 281 281 281 280 283 285 288 293 295 296 300 298 296 288 282 290 295 299 301 298 295 292 289 289 290 290 288 286 285 285 286 286
265 265 264 264 264 264 264 265 265 266 266 267 268 269 271 271 270 270 270 270 270 270 270 270 270 270 270 270 270 270 271 270 266 265 267 266 262 259 262 268 272 273 275 278 279 281 283 285 287 288 288 287 285 283 278 274 276 281 282 279 280 283 286 289 291 295 297 296 296 292 286 289 294 298 298 296 295 291 290 291 291 290 289 288 288 289 290 287
265 264 264 264 264 265 266 267 267 267 267 268 269 270 271 273 273 272 272 271 271 271 270 270 271 271 271 271 271 269 267 265 262 261 261 259 259 262 267 270 271 272 274 276 276 278 280 282 284 285 284 283 282 280 272 273 281 282 279 277 279 282 284 286 289 293 293 293 295 291 288 291 295 296 296 297 295 290 290 292 291 291 291 291 292 292 289 285
263 264 264 264 264 264 266 267 267 267 268 268 269 270 271 271 272 272 273 272 271 271 271 271 269 267 267 268 267 262 259 259 258 257 258 261 264 267 270 270 271 272 273 274 276 278 278 280 281 280 281 284 287 287 280 280 281 275 273 274 277 281 283 286 288 290 290 291 291 290 290 294 295 294 296 297 294 291 291 292 293 293 293 293 293 290 284 281
262 263 263 264 264 265 265 266 266 267 268 268 268 270 271 272 272 271 271 271 271 270 269 269 268 267 266 266 266 264 263 262 260 260 261 263 266 268 269 269 271 271 271 274 275 277 276 276 277 280 285 290 291 287 280 276 271 269 272 274 276 279 282 287 289 288 290 290 290 292 292 293 293 295 296 296 292 290 292 294 295 294 292 293 291 286 284 282
261 262 263 263 263 264 264 264 265 267 268 268 268 269 270 272 273 274 273 271 269 269 269 267 268 267 267 268 267 267 266 263 261 261 261 262 263 266 267 267 269 269 271 274 274 274 273 272 278 285 289 288 284 278 272 270 268 269 270 272 275 278 281 288 289 288 291 290 290 294 293 292 293 295 295 294 290 290 293 295 296 296 294 294 292 288 287 283
262 262 262 262 262 263 264 265 266 266 267 269 269 270 271 272 274 276 277 275 271 268 268 268 267 268 268 268 268 267 265 263 262 261 261 262 261 263 265 265 267 269 271 271 270 270 270 273 281 287 285 281 275 270 267 267 267 266 266 268 272 278 283 287 287 289 291 290 292 296 294 292 293 294 295 294 291 292 295 296 298 300 299 296 293 289 285 282
262 262 262 262 261 261 263 264 264 265 266 267 269 271 273 274 275 277 278 279 276 271 268 268 267 268 268 267 267 267 265 265 264 263 261 260 260 261 263 264 265 267 268 268 268 267 267 275 283 283 277 274 270 266 264 264 264 263 263 266 271 279 283 282 286 291 290 290 292 295 295 294 294 294 293 293 295 295 295 298 303 302 300 298 293 289 285 284
263 263 263 262 262 261 262 263 264 264 265 267 269 271 273 275 277 279 280 281 279 274 271 270 269 268 267 267 266 265 265 265 264 263 261 260 261 262 262 264 264 264 266 267 268 266 268 274 277 273 270 269 268 267 267 267 266 265 267 268 274 281 282 281 285 287 288 289 290 296 300 297 297 297 293 294 300 301 291 293 304 304 300 299 295 293 291 285
263 264 264 264 263 263 262 263 263 264 264 266 268 270 272 275 277 280 282 283 280 277 275 274 273 271 268 264 262 262 264 264 264 263 262 261 261 261 262 263 262 263 265 266 266 266 268 272 271 268 265 265 266 267 268 269 269 268 270 274 278 281 280 280 282 283 287 289 289 302 312 299 296 288 286 294 300 301 292 285 298 306 299 297 298 298 294 284
264 264 265 265 265 265 265 265 265 265 265 265 267 269 270 273 276 279 282 283 280 280 280 278 274 271 269 264 261 261 260 262 263 262 261 261 260 260 259 259 260 262 264 264 264 264 266 268 264 261 259 261 264 266 268 270 268 265 269 278 280 278 278 277 278 279 282 281 284 294 298 289 282 262 281 294 297 297 293 290 297 304 303 301 299 297 292 283
265 265 265 265 265 266 266 267 267 267 267 267 267 267 269 272 274 277 283 285 279 281 284 277 267 265 266 265 261 255 252 259 262 261 262 261 259 259 258 259 260 261 262 262 258 260 266 265 260 259 260 261 262 266 271 272 265 263 272 280 278 277 277 275 275 275 279 283 285 285 281 278 275 271 284 295 294 290 292 298 301 301 307 305 297 295 292 282
265 265 265 265 265 266 266 267 268 267 268 269 267 267 268 270 272 275 279 279 275 284 283 264 250 253 256 255 256 254 254 262 264 262 264 261 259 258 256 259 260 259 260 257 254 259 264 261 259 261 262 262 264 269 274 269 265 267 274 276 274 276 275 272 275 277 286 291 284 279 277 271 274 278 286 292 288 288 296 304 307 308 309 301 291 300 294 281
266 265 265 266 265 265 266 266 267 267 268 268 268 268 267 269 272 272 268 257 260 274 264 248 237 229 234 241 253 262 265 268 266 265 266 262 261 259 256 258 257 256 257 254 255 258 259 258 259 260 261 265 269 272 270 265 264 268 271 272 272 273 271 271 277 282 288 285 261 267 272 260 276 278 271 277 281 288 301 307 311 312 305 288 296 305 291 280
269 267 266 266 265 265 265 265 266 266 266 266 267 267 266 267 265 258 248 245 253 263 251 239 238 236 237 244 254 262 265 267 266 265 264 260 260 259 256 255 253 254 254 254 255 256 257 258 259 260 262 266 269 269 268 264 263 265 267 269 270 271 272 275 278 280 283 272 251 270 273 257 268 273 240 274 287 296 303 308 311 307 288 287 305 304 286 277
272 271 269 268 267 266 265 265 264 264 264 264 264 264 265 265 256 239 233 250 256 260 252 241 243 247 247 250 255 258 259 261 262 262 262 260 258 255 253 252 251 251 251 252 256 258 259 258 259 262 264 266 267 266 267 265 263 264 264 264 268 275 281 279 272 262 251 254 258 279 276 248 237 249 272 282 289 297 302 307 307 297 292 300 307 297 277 273
271 271 270 270 269 268 267 265 263 262 262 261 262 262 259 258 248 235 235 250 259 259 249 243 247 250 251 249 249 249 250 254 257 259 262 260 258 255 254 254 253 250 249 254 259 262 261 262 262 263 264 264 264 263 263 263 262 261 257 254 257 276 297 267 235 216 236 254 268 274 270 242 244 258 272 277 285 296 301 302 298 299 302 304 305 291 274 272
269 269 268 267 268 268 266 266 263 260 259 257 258 258 251 246 245 241 239 243 244 246 246 242 243 244 245 244 243 244 246 252 256 257 259 259 257 256 254 253 251 248 250 258 261 261 263 265 262 260 261 262 261 260 259 261 261 259 252 245 234 217 291 259 238 256 255 258 271 271 262 255 260 270 278 279 286 297 298 295 297 300 302 304 303 292 277 276
268 267 267 266 266 265 264 263 261 258 257 253 252 249 237 234 244 246 245 245 246 250 253 248 246 247 248 247 246 249 250 255 258 256 256 256 254 256 254 251 249 248 249 253 254 254 259 265 262 259 262 263 262 260 260 261 260 260 257 248 235 225 225 247 270 279 295 297 287 259 241 261 267 279 286 284 286 293 294 294 297 298 300 303 301 292 284 283
268 266 266 265 263 263 263 261 257 254 250 247 246 238 230 236 244 247 249 250 248 251 254 255 257 257 256 255 254 255 254 255 257 255 254 255 255 258 258 255 253 249 246 244 249 253 252 259 264 261 259 262 262 261 261 258 253 255 254 239 234 241 239 246 271 276 298 311 285 229 247 270 275 280 282 280 284 290 293 293 295 298 298 299 296 292 291 290
267 266 265 264 263 261 261 259 257 254 249 244 239 236 239 243 247 249 252 255 252 253 256 259 260 257 255 256 254 253 251 252 255 253 253 256 258 259 258 258 257 253 250 248 249 253 250 258 267 265 261 263 261 261 262 255 247 248 245 237 243 251 244 238 261 276 285 296 277 262 267 278 282 284 281 279 283 290 293 294 296 298 297 294 296 298 297 294
264 264 264 264 263 259 257 258 256 255 252 242 235 241 246 248 250 251 255 258 258 260 260 256 258 256 254 256 256 254 251 250 252 251 252 256 259 259 259 260 259 256 257 256 252 254 254 259 267 267 264 260 256 258 257 251 246 242 244 250 254 251 238 231 243 295 278 259 277 275 275 281 282 279 277 279 284 288 292 297 295 291 293 299 302 303 300 297
265 266 264 263 261 257 257 258 255 253 250 241 240 246 249 250 251 252 254 257 260 263 259 253 255 257 258 259 260 259 252 249 251 251 252 255 258 261 262 262 263 262 263 258 250 252 254 255 264 266 261 257 254 250 245 245 245 244 249 252 247 229 205 212 202 251 260 235 281 280 281 280 273 266 273 281 285 289 293 294 290 288 294 301 304 303 301 298
262 262 261 261 261 258 256 258 258 251 239 235 243 250 253 254 254 254 255 258 259 259 257 254 254 256 258 259 260 262 257 254 255 255 255 255 257 262 264 263 264 266 265 257 249 251 251 247 257 261 258 257 249 239 234 240 242 240 242 241 237 233 212 211 214 223 247 243 270 282 285 278 272 270 275 282 287 292 294 292 291 293 296 301 303 301 300 300
258 255 257 258 258 256 255 256 254 243 233 239 249 254 257 259 260 261 261 259 257 256 257 257 255 254 257 259 259 260 259 257 258 255 255 257 259 263 265 264 263 264 264 257 249 248 243 238 247 255 256 253 248 247 251 255 252 242 237 234 233 232 224 228 236 232 231 245 264 274 280 274 276 280 276 281 289 290 291 292 292 294 296 300 302 300 300 302
259 251 253 256 254 252 251 245 241 238 238 247 254 256 257 261 264 265 263 258 256 256 257 258 257 256 257 258 258 259 257 256 257 255 254 257 259 262 265 266 266 264 261 252 248 246 239 235 239 244 249 254 258 265 267 264 259 251 246 245 246 243 232 225 240 238 229 228 239 227 269 272 272 273 273 279 287 288 290 291 292 293 296 298 299 299 301 301
262 252 253 256 254 252 248 241 241 244 244 249 254 255 258 262 265 265 262 259 257 257 257 257 257 257 258 257 257 258 256 255 256 255 254 258 260 263 266 268 267 264 261 255 255 257 248 239 236 239 248 259 265 267 264 259 254 249 247 248 250 248 237 223 219 239 233 230 240 235 252 269 267 268 276 282 287 289 290 292 293 294 295 297 297 298 300 300
265 259 256 256 256 255 249 241 240 243 246 251 255 257 259 262 263 264 263 261 258 257 256 256 257 257 258 258 258 258 256 256 256 255 256 260 263 266 266 266 264 263 261 256 255 256 244 230 230 238 247 253 256 258 258 257 251 245 246 246 243 243 240 236 236 242 241 233 237 222 211 262 267 272 279 285 288 288 290 291 292 293 294 295 296 297 299 300
269 267 262 255 254 254 250 244 243 244 248 253 255 255 257 259 261 263 264 262 261 261 259 258 259 258 259 260 260 259 257 255 256 258 259 261 265 268 266 263 262 261 259 258 257 255 245 231 227 233 245 248 250 253 253 253 249 247 250 250 247 247 244 240 239 241 245 243 238 214 214 256 268 277 281 284 285 285 288 289 289 291 292 293 296 296 297 298
266 268 263 254 248 247 249 251 252 251 253 256 258 258 259 259 261 263 265 265 265 264 260 258 259 259 260 261 260 259 257 255 256 260 261 262 265 267 266 263 262 261 261 261 259 256 252 244 233 224 221 228 239 244 246 250 252 251 254 255 254 252 247 241 238 234 238 244 238 229 242 256 267 279 280 280 281 282 285 286 287 290 291 292 294 294 295 297
260 261 260 254 245 240 245 252 251 249 252 255 255 256 258 258 261 262 263 263 263 262 258 257 258 259 259 258 257 258 257 256 257 258 260 263 264 264 264 263 262 262 261 259 257 253 249 246 241 235 234 235 241 249 254 259 260 257 260 262 260 259 255 246 238 232 233 238 235 241 250 256 265 275 277 278 279 280 282 284 286 288 289 290 290 292 295 297
255 256 256 255 248 236 237 246 248 246 249 250 249 253 257 259 261 261 261 261 262 261 257 257 257 255 254 255 255 256 257 257 255 255 259 262 261 260 261 261 260 260 259 256 253 247 240 239 242 242 243 245 249 255 259 261 262 261 264 266 263 264 257 241 235 238 238 231 239 253 257 258 262 271 276 278 279 281 283 284 285 286 287 287 288 292 295 296
250 253 255 256 253 245 242 250 256 255 254 252 250 253 257 258 258 260 263 265 264 260 257 257 259 258 258 259 256 254 255 255 252 253 257 260 258 256 257 258 257 257 257 255 250 244 239 239 243 245 247 250 252 255 257 258 259 260 262 263 263 265 260 247 245 247 243 237 248 260 263 264 266 271 275 277 279 281 282 284 284 284 284 285 288 292 294 294
250 251 253 255 256 254 254 258 262 263 262 257 251 251 255 258 259 262 265 263 260 261 259 259 262 265 267 267 258 250 249 251 252 254 257 259 258 257 256 256 256 256 256 255 251 247 242 242 246 248 250 252 253 255 257 256 256 258 259 262 263 263 261 257 257 259 255 251 257 263 265 266 269 271 272 275 279 281 282 284 284 284 284 286 288 290 291 292
252 251 253 255 258 261 261 260 258 258 260 256 248 250 256 259 260 264 264 258 258 263 263 261 265 271 273 270 260 251 253 258 259 260 263 263 259 258 259 259 259 258 256 253 251 246 243 245 249 250 252 254 253 254 255 254 255 258 258 260 260 259 259 259 261 263 260 257 259 262 262 264 269 274 276 280 284 283 283 284 284 286 288 289 288 289 290 293
252 251 250 251 255 258 259 260 258 256 256 253 250 253 256 257 261 267 267 263 261 264 265 266 271 276 275 269 262 261 267 271 269 271 274 270 261 258 260 261 262 260 256 255 253 247 244 246 248 248 251 252 251 252 253 254 258 258 255 254 253 253 255 255 256 259 260 260 262 261 260 266 276 283 285 286 287 285 283 285 288 292 293 291 290 291 293 294
251 250 248 246 249 251 252 256 258 255 254 255 258 260 259 261 267 269 265 263 263 265 266 268 270 271 268 265 267 273 278 280 279 279 279 274 265 261 261 262 262 261 260 259 258 252 247 246 245 245 246 249 251 252 253 256 258 250 248 250 249 250 253 253 254 256 257 258 260 261 265 274 283 287 285 284 285 284 284 288 293 293 292 292 292 292 293 293
Height
3212 3212 3212 3212 3212 3211 3211 3211 3211 3210 3210 3210 3210 3210 3209 3209 3209 3208 3208 3208 3207 3207 3206 3206 3205 3205 3205 3204 3204 3203 3203 3202 3202 3201 3200 3200 3199 3199 3198 3197 3196 3195 3195 3194 3193 3192 3192 3191 3190 3189 3188 3188 3187 3187 3186 3185 3184 3184 3183 3183 3182 3181 3180 3179 3179 3178 3177 3176 3176 3175 3175 3174 3174 3173 3172 3172 3171 3171 3170 3170 3170 3170 3170 3169 3168 3167 3166 3166
3211 3211 3211 3211 3211 3210 3210 3210 3210 3210 3209 3209 3209 3209 3208 3208 3208 3207 3207 3207 3206 3206 3205 3205 3205 3204 3204 3203 3203 3203 3202 3202 3201 3201 3200 3200 3199 3198 3198 3197 3196 3195 3195 3194 3193 3192 3192 3191 3190 3189 3188 3188 3187 3186 3186 3185 3184 3183 3182 3182 3181 3180 3179 3178 3177 3176 3176 3175 3174 3174 3173 3173 3172 3172 3171 3170 3170 3169 3168 3168 3168 3168 3168 3167 3166 3165 3164 3164
3210 3210 3210 3210 3210 3209 3209 3209 3209 3208 3208 3208 3208 3208 3207 3207 3207 3206 3206 3206 3205 3205 3204 3204 3204 3203 3203 3202 3202 3202 3202 3201 3201 3200 3200 3199 3199 3198 3198 3197 3196 3195 3194 3194 3193 3192 3191 3191 3190 3189 3188 3187 3187 3186 3185 3184 3183 3183 3182 3181 3180 3179 3178 3177 3176 3175 3174 3173 3173 3172 3172 3171 3171 3170 3170 3169 3168 3167 3167 3167 3166 3165 3165 3165 3164 3163 3162 3162
3209 3209 3209 3209 3208 3208 3208 3208 3208 3207 3207 3207 3207 3206 3206 3206 3205 3205 3205 3204 3204 3204 3203 3203 3203 3202 3202 3201 3201 3201 3200 3200 3199 3199 3199 3198 3198 3197 3197 3196 3196 3195 3194 3193 3192 3191 3191 3190 3190 3189 3188 3187 3186 3185 3184 3184 3183 3182 3181 3180 3178 3177 3177 3176 3175 3174 3173 3172 3171 3171 3170 3170 3169 3168 3168 3167 3166 3165 3165 3166 3164 3163 3163 3162 3161 3161 3160 3159
3207 3207 3207 3207 3207 3207 3207 3207 3206 3206 3206 3206 3206 3205 3205 3205 3204 3204 3204 3203 3203 3203 3202 3202 3201 3201 3200 3200 3200 3199 3199 3199 3198 3198 3198 3197 3197 3196 3196 3196 3195 3194 3194 3193 3192 3191 3190 3190 3189 3188 3187 3186 3185 3184 3183 3182 3182 3181 3180 3179 3177 3176 3175 3175 3174 3173 3172 3171 3170 3169 3168 3168 3167 3166 3165 3165 3164 3163 3164 3163 3162 3161 3161 3160 3159 3158 3157 3157
3206 3206 3206 3206 3206 3206 3205 3205 3205 3205 3205 3205 3204 3204 3204 3203 3203 3203 3202 3202 3202 3201 3201 3201 3200 3199 3199 3199 3198 3198 3198 3197 3197 3197 3196 3196 3195 3195 3195 3194 3194 3193 3193 3192 3191 3191 3190 3189 3188 3187 3186 3185 3184 3183 3182 3181 3180 3179 3178 3177 3176 3175 3174 3173 3173 3171 3170 3169 3168 3168 3167 3166 3165 3164 3163 3162 3162 3161 3161 3160 3160 3159 3158 3158 3157 3156 3156 3155
3204 3204 3204 3204 3204 3204 3204 3204 3204 3203 3203 3203 3203 3203 3203 3202 3202 3201 3201 3201 3200 3200 3200 3199 3199 3198 3198 3197 3197 3196 3196 3196 3195 3195 3195 3194 3194 3193 3193 3193 3192 3192 3192 3191 3190 3190 3189 3188 3187 3187 3186 3185 3184 3182 3181 3180 3179 3178 3177 3176 3175 3174 3173 3172 3171 3170 3169 3168 3167 3166 3165 3164 3163 3162 3161 3160 3160 3159 3158 3157 3157 3156 3156 3155 3155 3154 3154 3153
3202 3202 3202 3203 3202 3202 3202 3202 3202 3202 3201 3201 3201 3201 3201 3201 3200 3200 3199 3199 3199 3198 3198 3198 3197 3197 3196 3196 3195 3195 3194 3194 3194 3193 3193 3193 3192 3192 3192 3191 3191 3191 3190 3190 3189 3189 3188 3187 3186 3185 3185 3184 3183 3182 3180 3179 3178 3177 3175 3174 3174 3173 3172 3171 3170 3169 3168 3167 3166 3165 3164 3163 3161 3160 3159 3159 3158 3156 3155 3155 3155 3154 3154 3153 3152 3152 3151 3150
3201 3201 3201 3201 3201 3201 3200 3200 3200 3200 3200 3200 3199 3199 3199 3199 3199 3198 3198 3198 3197 3197 3196 3196 3196 3195 3195 3194 3194 3193 3193 3192 3192 3192 3192 3191 3191 3190 3190 3190 3189 3189 3188 3188 3188 3187 3186 3186 3185 3184 3183 3182 3181 3180 3179 3178 3176 3175 3174 3173 3172 3171 3170 3169 3168 3167 3166 3166 3164 3163 3162 3161 3160 3158 3157 3157 3156 3154 3153 3153 3153 3152 3151 3151 3150 3149 3149 3148
3198 3198 3199 3199 3199 3199 3199 3199 3198 3198 3198 3198 3198 3197 3197 3197 3197 3197 3196 3196 3195 3195 3195 3194 3194 3193 3193 3192 3192 3192 3191 3191 3191 3190 3190 3190 3189 3189 3189 3188 3187 3187 3187 3186 3186 3185 3185 3184 3183 3182 3181 3180 3179 3178 3177 3176 3174 3173 3172 3171 3170 3169 3168 3167 3166 3165 3164 3164 3162 3161 3160 3159 3158 3156 3155 3156 3154 3153 3152 3151 3150 3150 3149 3148 3147 3147 3146 3145
3196 3196 3196 3196 3196 3197 3197 3197 3196 3196 3196 3196 3196 3195 3195 3195 3195 3195 3194 3194 3194 3193 3193 3192 3192 3192 3191 3191 3190 3190 3189 3189 3189 3189 3188 3188 3188 3187 3187 3186 3186 3185 3185 3184 3184 3183 3183 3182 3181 3180 3179 3178 3177 3176 3175 3174 3172 3171 3170 3169 3168 3167 3166 3165 3164 3163 3162 3161 3161 3159 3156 3156 3156 3154 3154 3154 3152 3151 3150 3149 3148 3147 3146 3145 3144 3143 3142 3142
3194 3194 3194 3194 3194 3194 3194 3194 3194 3194 3194 3194 3193 3193 3193 3193 3193 3192 3192 3192 3191 3191 3190 3190 3190 3189 3189 3189 3188 3188 3187 3187 3187 3187 3187 3186 3186 3185 3185 3184 3184 3183 3183 3182 3182 3181 3180 3180 3179 3178 3177 3176 3175 3174 3173 3171 3170 3169 3168 3166 3165 3164 3164 3163 3162 3161 3160 3159 3159 3157 3152 3149 3152 3153 3152 3152 3150 3149 3147 3146 3146 3144 3143 3142 3141 3140 3139 3138
3192 3192 3192 3192 3191 3192 3191 3191 3192 3191 3191 3191 3191 3191 3190 3190 3190 3190 3189 3189 3189 3189 3188 3188 3187 3187 3186 3186 3186 3186 3185 3185 3185 3185 3185 3184 3184 3183 3183 3182 3182 3181 3180 3180 3179 3179 3178 3177 3177 3175 3175 3174 3173 3172 3171 3169 3168 3167 3166 3164 3163 3162 3161 3160 3160 3159 3158 3157 3156 3157 3149 3142 3147 3150 3150 3149 3147 3146 3144 3143 3143 3141 3140 3139 3138 3137 3136 3135
3189 3189 3190 3189 3189 3189 3189 3189 3189 3189 3189 3189 3188 3188 3188 3188 3187 3187 3187 3186 3186 3186 3185 3185 3185 3184 3184 3183 3184 3183 3183 3183 3183 3183 3183 3182 3182 3181 3180 3180 3179 3179 3178 3177 3177 3176 3176 3175 3174 3173 3172 3171 3170 3169 3168 3167 3165 3164 3163 3161 3160 3159 3157 3157 3158 3156 3155 3154 3153 3154 3146 3139 3143 3146 3146 3146 3145 3143 3141 3140 3140 3138 3137 3135 3135 3134 3133 3132
3187 3187 3187 3187 3187 3187 3186 3186 3186 3186 3186 3186 3186 3185 3185 3185 3184 3184 3184 3183 3183 3183 3183 3182 3182 3181 3181 3181 3181 3181 3181 3181 3181 3181 3180 3180 3179 3179 3178 3177 3177 3176 3176 3175 3174 3174 3173 3173 3172 3170 3169 3169 3168 3167 3166 3164 3162 3162 3161 3159 3157 3156 3154 3153 3154 3153 3152 3151 3150 3150 3144 3137 3139 3142 3142 3142 3141 3139 3137 3137 3136 3134 3133 3132 3131 3130 3129 3128
3183 3184 3184 3184 3185 3184 3184 3184 3184 3184 3184 3184 3183 3183 3182 3182 3181 3181 3180 3181 3180 3180 3180 3179 3179 3178 3178 3178 3178 3178 3179 3179 3179 3179 3178 3178 3177 3176 3175 3175 3174 3173 3173 3172 3172 3171 3171 3170 3169 3168 3167 3166 3165 3165 3164 3162 3159 3159 3159 3156 3154 3153 3151 3149 3150 3150 3149 3148 3146 3145 3140 3135 3136 3138 3138 3138 3136 3134 3133 3133 3132 3130 3129 3127 3127 3126 3125 3124
3180 3180 3181 3181 3182 3182 3182 3181 3181 3181 3181 3181 3181 3180 3179 3178 3178 3178 3177 3177 3177 3177 3176 3176 3176 3175 3174 3174 3175 3176 3176 3176 3176 3176 3175 3175 3174 3173 3173 3172 3171 3171 3170 3170 3169 3168 3168 3168 3167 3165 3164 3163 3163 3163 3162 3159 3156 3156 3156 3154 3152 3151 3149 3147 3146 3146 3146 3144 3142 3140 3136 3132 3133 3135 3134 3134 3132 3129 3128 3129 3128 3126 3124 3123 3122 3122 3121 3119
3176 3177 3177 3178 3178 3179 3179 3178 3178 3178 3178 3178 3178 3178 3177 3176 3175 3174 3174 3174 3173 3173 3172 3172 3173 3172 3171 3172 3172 3173 3173 3173 3173 3173 3172 3172 3171 3171 3170 3169 3169 3168 3167 3167 3166 3166 3165 3164 3164 3163 3161 3160 3159 3160 3158 3155 3155 3154 3153 3151 3149 3148 3146 3144 3143 3143 3142 3140 3139 3135 3131 3128 3129 3130 3131 3130 3128 3125 3124 3124 3123 3121 3120 3119 3118 3117 3116 3114
3172 3173 3173 3174 3174 3175 3175 3175 3175 3175 3175 3175 3175 3174 3173 3173 3172 3171 3170 3170 3170 3170 3169 3169 3169 3168 3168 3169 3169 3170 3170 3170 3170 3170 3169 3169 3168 3168 3167 3167 3166 3165 3165 3163 3163 3163 3162 3161 3161 3159 3157 3156 3156 3156 3154 3152 3152 3151 3149 3148 3147 3145 3143 3142 3141 3140 3139 3136 3134 3131 3127 3124 3124 3124 3126 3127 3124 3120 3119 3120 3119 3117 3115 3115 3114 3113 3111 3109
3168 3169 3169 3170 3171 3172 3172 3171 3171 3171 3172 3172 3172 3171 3170 3169 3168 3167 3167 3166 3166 3166 3166 3165 3164 3164 3165 3166 3167 3167 3167 3167 3166 3166 3166 3166 3165 3164 3164 3163 3163 3162 3161 3161 3160 3159 3159 3158 3156 3155 3154 3154 3153 3153 3151 3149 3148 3147 3146 3145 3144 3142 3139 3139 3139 3136 3135 3132 3128 3127 3123 3119 3119 3119 3121 3123 3120 3116 3115 3116 3115 3113 3111 3111 3110 3108 3106 3105
3165 3165 3165 3166 3167 3168 3167 3167 3167 3168 3168 3168 3168 3167 3166 3165 3164 3163 3162 3161 3162 3162 3161 3161 3161 3160 3161 3162 3163 3163 3162 3162 3162 3162 3162 3162 3162 3160 3160 3160 3159 3158 3158 3158 3156 3155 3155 3153 3152 3152 3151 3151 3150 3149 3147 3146 3145 3144 3144 3142 3141 3139 3135 3136 3136 3133 3131 3127 3123 3123 3118 3113 3114 3115 3115 3117 3116 3113 3112 3112 3110 3109 3108 3107 3106 3104 3102 3102
3161 3161 3162 3162 3163 3164 3163 3163 3164 3164 3164 3164 3164 3163 3162 3162 3160 3159 3157 3155 3156 3157 3157 3157 3156 3156 3158 3159 3159 3159 3158 3156 3157 3158 3159 3158 3157 3156 3155 3156 3155 3154 3155 3155 3152 3151 3150 3148 3148 3149 3148 3147 3146 3145 3144 3143 3142 3141 3141 3140 3138 3135 3133 3133 3132 3130 3128 3124 3119 3117 3111 3106 3108 3110 3109 3109 3110 3110 3109 3108 3108 3106 3104 3103 3102 3100 3098 3097
3157 3157 3158 3158 3160 3160 3159 3159 3160 3161 3161 3160 3160 3159 3158 3157 3156 3155 3153 3148 3147 3151 3152 3152 3152 3152 3154 3154 3154 3155 3152 3152 3153 3153 3155 3153 3152 3152 3151 3152 3151 3150 3151 3149 3148 3146 3145 3144 3146 3146 3144 3143 3142 3142 3141 3140 3138 3137 3138 3137 3134 3133 3132 3130 3128 3127 3125 3121 3116 3113 3104 3097 3100 3103 3103 3104 3103 3105 3106 3105 3105 3103 3101 3100 3098 3097 3095 3094
3153 3154 3154 3154 3156 3155 3155 3156 3156 3157 3158 3157 3157 3156 3155 3154 3153 3151 3149 3142 3137 3142 3146 3147 3147 3148 3150 3150 3150 3149 3147 3147 3147 3148 3150 3148 3148 3148 3147 3148 3147 3146 3145 3144 3143 3142 3140 3142 3142 3141 3141 3139 3139 3138 3138 3137 3134 3133 3134 3134 3131 3130 3131 3128 3126 3124 3121 3118 3114 3111 3100 3087 3090 3095 3095 3099 3099 3099 3101 3101 3102 3101 3098 3097 3094 3093 3092 3090
3149 3150 3149 3151 3152 3151 3152 3152 3152 3153 3154 3153 3153 3153 3152 3151 3150 3148 3146 3137 3128 3131 3139 3141 3141 3142 3144 3145 3145 3145 3142 3141 3142 3143 3144 3143 3144 3143 3142 3143 3142 3140 3141 3141 3139 3136 3136 3138 3137 3137 3137 3136 3135 3135 3136 3134 3130 3130 3130 3130 3129 3128 3128 3125 3124 3122 3119 3116 3111 3112 3103 3081 3079 3087 3088 3093 3095 3095 3096 3095 3098 3099 3095 3094 3091 3089 3089 3087
3146 3146 3146 3147 3148 3148 3148 3148 3149 3150 3149 3150 3150 3150 3149 3148 3147 3146 3143 3133 3120 3122 3131 3134 3135 3135 3136 3138 3139 3141 3138 3135 3137 3138 3138 3139 3139 3138 3137 3137 3137 3136 3136 3137 3135 3131 3132 3134 3133 3133 3133 3133 3132 3131 3132 3132 3128 3125 3125 3127 3127 3125 3124 3122 3121 3120 3117 3114 3108 3113 3113 3086 3072 3079 3082 3087 3090 3090 3092 3090 3092 3095 3093 3090 3088 3086 3085 3084
3141 3142 3142 3143 3144 3145 3144 3144 3146 3145 3146 3147 3146 3146 3145 3145 3145 3144 3142 3130 3115 3117 3124 3126 3128 3129 3130 3132 3133 3135 3132 3129 3132 3133 3134 3134 3134 3134 3132 3132 3133 3132 3132 3133 3129 3126 3128 3130 3130 3129 3129 3130 3129 3127 3129 3129 3125 3121 3121 3125 3124 3122 3122 3119 3119 3118 3113 3111 3104 3106 3115 3095 3067 3067 3076 3081 3084 3084 3087 3088 3087 3089 3089 3087 3085 3084 3083 3081
3137 3138 3138 3139 3140 3140 3140 3141 3141 3142 3143 3142 3142 3143 3141 3142 3142 3142 3142 3130 3112 3112 3119 3121 3123 3124 3126 3128 3128 3129 3128 3127 3129 3129 3130 3131 3129 3129 3128 3127 3129 3127 3129 3128 3124 3124 3126 3126 3127 3127 3126 3125 3125 3125 3126 3126 3122 3118 3119 3120 3120 3119 3118 3115 3116 3115 3111 3109 3100 3096 3109 3098 3063 3055 3069 3074 3077 3079 3082 3084 3084 3083 3084 3082 3082 3082 3080 3078
3133 3133 3134 3135 3136 3136 3137 3137 3137 3138 3139 3138 3139 3138 3138 3139 3138 3139 3140 3127 3110 3110 3116 3117 3120 3121 3123 3125 3125 3126 3125 3125 3126 3125 3127 3127 3125 3125 3124 3124 3125 3123 3124 3123 3120 3122 3122 3122 3123 3123 3122 3121 3122 3123 3122 3122 3119 3116 3116 3115 3116 3116 3114 3114 3112 3111 3112 3104 3093 3091 3102 3097 3062 3047 3062 3068 3069 3075 3077 3080 3080 3079 3079 3078 3079 3079 3077 3075
3128 3128 3129 3130 3131 3132 3132 3133 3134 3134 3135 3135 3135 3134 3135 3135 3135 3136 3130 3115 3107 3110 3112 3113 3116 3118 3120 3121 3121 3122 3123 3122 3122 3122 3123 3123 3121 3121 3120 3121 3121 3120 3120 3118 3117 3119 3118 3118 3119 3118 3119 3118 3119 3118 3117 3118 3116 3114 3114 3112 3113 3112 3110 3112 3108 3109 3110 3095 3085 3087 3092 3093 3069 3047 3054 3061 3064 3070 3073 3075 3076 3075 3075 3075 3075 3075 3073 3072
3123 3124 3124 3125 3126 3127 3127 3128 3129 3129 3131 3131 3131 3131 3131 3130 3131 3128 3113 3103 3107 3109 3107 3109 3111 3113 3116 3116 3117 3118 3119 3118 3118 3119 3118 3118 3117 3116 3116 3118 3118 3117 3116 3114 3113 3114 3114 3113 3113 3113 3115 3115 3114 3114 3113 3113 3112 3111 3111 3110 3112 3110 3108 3108 3105 3108 3105 3087 3080 3083 3085 3087 3069 3047 3051 3057 3059 3065 3068 3071 3072 3071 3071 3070 3070 3070 3069 3069
3118 3118 3119 3120 3121 3122 3122 3123 3123 3125 3125 3125 3127 3127 3127 3128 3121 3109 3100 3103 3108 3104 3102 3107 3107 3108 3112 3111 3112 3114 3114 3114 3114 3115 3114 3114 3112 3110 3112 3114 3114 3115 3112 3110 3110 3110 3108 3107 3109 3110 3110 3111 3110 3110 3109 3108 3107 3107 3107 3109 3111 3110 3108 3105 3100 3099 3094 3082 3078 3080 3081 3076 3055 3044 3052 3055 3057 3062 3064 3066 3068 3067 3067 3065 3066 3066 3065 3065
3112 3112 3113 3115 3116 3117 3118 3117 3118 3119 3119 3121 3122 3121 3125 3123 3104 3091 3095 3104 3104 3099 3101 3104 3104 3106 3107 3106 3107 3109 3110 3110 3111 3111 3111 3109 3106 3105 3108 3109 3110 3111 3108 3107 3108 3106 3104 3102 3104 3105 3105 3106 3106 3105 3104 3102 3102 3102 3102 3106 3107 3108 3109 3103 3094 3090 3084 3078 3076 3078 3077 3063 3043 3041 3048 3049 3054 3060 3060 3061 3062 3062 3062 3062 3061 3061 3061 3061
3107 3106 3107 3109 3110 3111 3112 3112 3112 3113 3114 3116 3115 3116 3119 3109 3088 3084 3093 3096 3098 3100 3100 3102 3103 3103 3102 3101 3103 3105 3107 3106 3106 3107 3106 3104 3101 3099 3101 3103 3105 3107 3105 3105 3104 3103 3102 3096 3096 3101 3101 3100 3100 3100 3100 3098 3098 3098 3098 3102 3102 3102 3104 3097 3088 3084 3080 3075 3073 3075 3070 3051 3038 3039 3041 3043 3049 3055 3056 3056 3057 3057 3057 3058 3057 3057 3057 3057
3102 3100 3101 3102 3104 3106 3107 3106 3106 3107 3108 3108 3110 3111 3105 3089 3080 3085 3089 3090 3096 3098 3098 3100 3100 3099 3098 3097 3099 3101 3103 3102 3100 3102 3100 3097 3095 3093 3093 3097 3100 3102 3102 3102 3100 3100 3098 3090 3090 3095 3095 3095 3096 3095 3097 3096 3095 3094 3095 3098 3096 3095 3097 3094 3088 3083 3083 3079 3068 3064 3055 3038 3035 3037 3035 3039 3043 3047 3051 3050 3051 3053 3052 3054 3053 3053 3054 3053
3096 3094 3094 3094 3098 3102 3101 3099 3099 3100 3100 3102 3105 3101 3087 3078 3081 3085 3085 3088 3092 3094 3096 3098 3095 3094 3093 3092 3093 3095 3098 3097 3095 3096 3094 3091 3089 3086 3086 3090 3095 3097 3096 3097 3097 3095 3092 3087 3086 3089 3089 3091 3092 3091 3093 3092 3091 3091 3090 3090 3089 3090 3092 3093 3089 3084 3086 3082 3062 3050 3043 3031 3032 3032 3027 3033 3038 3040 3045 3044 3045 3047 3047 3048 3048 3048 3050 3049
3089 3087 3087 3087 3091 3095 3093 3091 3093 3094 3093 3095 3095 3087 3076 3075 3080 3082 3083 3085 3088 3090 3094 3093 3089 3089 3088 3086 3086 3089 3093 3093 3090 3089 3088 3086 3082 3077 3080 3085 3088 3090 3091 3093 3093 3091 3089 3085 3083 3084 3084 3086 3088 3088 3087 3085 3086 3087 3085 3083 3085 3088 3090 3090 3090 3085 3086 3081 3058 3043 3039 3030 3026 3024 3021 3027 3032 3034 3037 3038 3039 3041 3042 3043 3043 3043 3044 3043
3083 3082 3078 3078 3083 3087 3086 3085 3086 3087 3088 3089 3084 3074 3069 3070 3072 3075 3079 3082 3084 3087 3088 3086 3084 3084 3084 3083 3082 3085 3089 3087 3084 3084 3083 3080 3073 3070 3075 3079 3080 3084 3087 3090 3088 3086 3086 3083 3080 3080 3079 3081 3083 3082 3079 3078 3081 3081 3078 3080 3081 3083 3084 3085 3088 3084 3080 3077 3058 3041 3036 3023 3014 3017 3019 3023 3027 3029 3031 3032 3033 3034 3036 3037 3037 3038 3038 3038
3077 3074 3068 3068 3074 3078 3079 3078 3079 3081 3081 3078 3072 3065 3063 3063 3065 3070 3075 3077 3080 3081 3080 3079 3080 3080 3079 3079 3079 3081 3082 3080 3079 3079 3076 3072 3067 3064 3069 3074 3075 3078 3082 3084 3083 3081 3082 3081 3077 3075 3074 3077 3076 3072 3070 3071 3074 3074 3074 3075 3075 3076 3078 3078 3079 3076 3072 3071 3061 3048 3033 3007 2998 3011 3017 3019 3024 3025 3027 3027 3027 3028 3029 3031 3032 3031 3032 3032
3069 3064 3058 3060 3066 3069 3071 3071 3071 3071 3068 3065 3062 3058 3056 3057 3060 3065 3069 3071 3073 3073 3072 3073 3075 3075 3073 3074 3074 3076 3076 3074 3074 3073 3070 3067 3063 3060 3063 3068 3071 3074 3076 3077 3076 3076 3078 3076 3074 3073 3072 3071 3066 3062 3063 3064 3065 3065 3066 3068 3068 3071 3074 3072 3070 3068 3068 3068 3062 3057 3035 2997 2990 3007 3011 3015 3021 3022 3023 3023 3022 3023 3024 3025 3026 3025 3026 3027
3062 3056 3052 3055 3057 3061 3064 3060 3058 3059 3057 3055 3054 3051 3051 3053 3056 3058 3061 3064 3065 3066 3067 3068 3068 3068 3068 3068 3068 3069 3071 3069 3067 3067 3064 3061 3059 3058 3059 3062 3066 3069 3070 3070 3070 3071 3071 3070 3070 3070 3066 3062 3058 3058 3059 3057 3056 3056 3057 3059 3060 3063 3066 3067 3065 3061 3062 3061 3054 3054 3037 2999 2990 3004 3006 3011 3017 3016 3018 3019 3017 3018 3018 3019 3020 3019 3020 3020
3056 3050 3049 3051 3050 3053 3055 3048 3047 3050 3047 3044 3045 3046 3047 3049 3050 3051 3053 3057 3059 3060 3061 3061 3060 3061 3061 3062 3062 3063 3065 3062 3060 3060 3056 3054 3055 3055 3056 3059 3061 3062 3064 3065 3065 3066 3066 3065 3065 3062 3060 3058 3056 3054 3052 3049 3049 3051 3051 3053 3054 3056 3057 3058 3057 3052 3054 3053 3045 3047 3037 3001 2987 3000 3006 3008 3012 3011 3012 3013 3010 3011 3012 3012 3013 3013 3014 3014
3049 3046 3046 3046 3044 3046 3045 3039 3039 3041 3036 3036 3040 3042 3044 3044 3043 3044 3046 3049 3052 3054 3054 3053 3053 3054 3054 3056 3057 3057 3057 3055 3053 3052 3051 3050 3050 3050 3053 3055 3054 3056 3059 3058 3059 3061 3062 3060 3059 3056 3055 3054 3051 3047 3043 3041 3044 3044 3043 3045 3046 3047 3048 3049 3049 3047 3046 3043 3036 3040 3034 3000 2984 2998 3007 3007 3007 3007 3008 3007 3005 3005 3006 3007 3007 3007 3008 3007
3045 3043 3041 3040 3038 3038 3035 3031 3031 3031 3030 3033 3035 3035 3037 3037 3037 3038 3039 3041 3044 3046 3045 3044 3045 3047 3048 3050 3051 3050 3050 3049 3045 3045 3047 3046 3043 3043 3047 3048 3049 3050 3051 3051 3053 3056 3055 3052 3053 3053 3052 3050 3045 3040 3035 3033 3035 3036 3035 3038 3039 3040 3044 3045 3044 3044 3038 3028 3026 3031 3021 2996 2988 2999 3005 3004 3003 3003 3004 3003 3001 3001 3001 3001 3002 3002 3002 3001
3040 3037 3035 3035 3033 3029 3025 3024 3026 3024 3025 3028 3028 3029 3031 3031 3032 3034 3033 3034 3036 3037 3037 3037 3039 3041 3043 3045 3044 3042 3043 3043 3041 3040 3041 3039 3036 3036 3038 3040 3042 3043 3043 3045 3047 3047 3046 3044 3045 3045 3043 3039 3034 3029 3027 3027 3029 3030 3029 3031 3033 3035 3038 3037 3036 3036 3024 3013 3019 3022 3005 2991 2994 3000 2998 2998 2999 2999 2999 2998 2997 2997 2996 2996 2996 2996 2996 2995
3034 3030 3029 3030 3028 3021 3018 3020 3021 3019 3020 3022 3020 3022 3025 3024 3026 3028 3028 3027 3027 3028 3029 3031 3034 3036 3036 3036 3036 3034 3035 3036 3036 3035 3033 3030 3029 3029 3030 3032 3034 3036 3036 3038 3039 3039 3037 3034 3033 3032 3028 3026 3024 3022 3025 3026 3025 3024 3023 3025 3027 3028 3028 3029 3027 3020 3009 3007 3013 3010 2996 2991 2997 2996 2989 2989 2993 2994 2995 2996 2994 2992 2991 2990 2989 2990 2990 2989
3026 3021 3021 3025 3023 3017 3014 3015 3015 3013 3014 3016 3014 3015 3018 3018 3020 3021 3020 3020 3020 3022 3023 3024 3027 3028 3027 3029 3028 3026 3027 3028 3028 3026 3023 3022 3023 3023 3024 3025 3027 3028 3030 3031 3032 3031 3027 3023 3024 3023 3020 3020 3021 3021 3023 3023 3019 3019 3020 3020 3020 3021 3021 3020 3011 3001 3003 3009 3004 2995 2993 2993 2994 2992 2984 2981 2985 2987 2990 2991 2989 2987 2985 2982 2983 2984 2983 2981
3019 3014 3014 3017 3015 3010 3008 3008 3008 3007 3008 3009 3008 3009 3011 3012 3013 3013 3013 3014 3015 3016 3017 3016 3018 3019 3020 3022 3021 3017 3019 3021 3020 3017 3015 3016 3018 3018 3018 3019 3020 3022 3024 3024 3024 3024 3020 3017 3019 3018 3014 3015 3017 3017 3017 3017 3014 3015 3015 3014 3014 3015 3011 3004 2996 2995 3003 3002 2989 2986 2992 2992 2989 2986 2980 2977 2979 2980 2982 2983 2981 2979 2977 2976 2978 2978 2975 2972
3011 3009 3009 3009 3004 3001 3001 3002 3004 3003 3001 3003 3002 3001 3004 3004 3003 3005 3008 3008 3007 3009 3010 3008 3010 3013 3014 3015 3013 3010 3013 3015 3012 3011 3012 3012 3013 3012 3012 3013 3014 3015 3017 3017 3018 3019 3015 3011 3013 3013 3009 3008 3011 3011 3010 3011 3010 3009 3008 3009 3009 3005 2999 2994 2992 2994 2995 2988 2982 2985 2989 2986 2982 2978 2974 2975 2976 2974 2974 2975 2972 2970 2969 2970 2973 2971 2967 2965
3004 3003 3004 3002 2996 2995 2996 2997 2999 2996 2994 2996 2994 2993 2997 2996 2995 2999 3001 3000 2999 3001 3003 3001 3002 3007 3008 3007 3007 3005 3007 3009 3005 3005 3009 3008 3006 3007 3006 3006 3007 3009 3010 3011 3011 3012 3009 3005 3007 3009 3003 3002 3005 3003 3001 3004 3004 3002 3003 3005 3001 2993 2991 2991 2989 2986 2984 2981 2981 2985 2983 2977 2972 2970 2970 2971 2969 2968 2967 2966 2963 2961 2961 2964 2965 2963 2960 2959
2997 2996 2999 2995 2988 2988 2989 2988 2991 2989 2986 2988 2986 2986 2988 2986 2989 2994 2992 2991 2993 2994 2995 2994 2996 3001 3003 3001 3000 2998 2999 3000 2998 2999 3003 3002 3000 3001 3000 3000 3002 3002 3003 3004 3003 3004 3003 3000 3002 3003 2998 2994 2996 2994 2994 2997 2998 2997 2999 2995 2986 2982 2984 2984 2980 2977 2977 2977 2979 2980 2975 2967 2963 2964 2965 2962 2959 2959 2958 2956 2954 2952 2953 2956 2956 2953 2951 2951
2988 2987 2990 2988 2979 2979 2981 2981 2982 2979 2976 2978 2979 2979 2979 2979 2985 2990 2984 2981 2986 2987 2988 2990 2991 2993 2993 2991 2992 2992 2992 2993 2992 2994 2997 2996 2994 2994 2993 2993 2994 2995 2995 2997 2996 2997 2997 2995 2995 2997 2991 2986 2987 2988 2988 2993 2993 2988 2983 2976 2972 2975 2976 2972 2969 2970 2972 2974 2974 2971 2964 2958 2957 2959 2955 2951 2950 2950 2949 2948 2946 2945 2947 2950 2948 2944 2943 2943